This is the latest recevied weather packets stored in our database for station/object CT1ETE-13. If no packets are shown the sender has not sent any weather packets the latest 10 day(s).
| Time | Temp. | Humidity | Pressure | Rain* | Wind** | Luminosity | Snow |
|---|---|---|---|---|---|---|---|
| 1787453287 | 19.44° C | 64% | 1011.5 hPa | 0 mm | - | - | - |
| 1787452801 | 19.44° C | 65% | 1011.3 hPa | 0 mm | - | - | - |
| 1787452390 | 19.44° C | 65% | 1011.3 hPa | 0 mm | - | - | - |
| 1787451546 | 18.89° C | 67% | 1011.2 hPa | 0 mm | - | - | - |
| 1787450586 | 18.33° C | 68% | 1011.3 hPa | 0 mm | - | - | - |
| 1787449700 | 18.33° C | 69% | 1011.5 hPa | 0 mm | - | - | - |
| 1787448782 | 18.33° C | 69% | 1011.8 hPa | 0 mm | - | - | - |
| 1787447881 | 17.78° C | 72% | 1012.1 hPa | 0 mm | - | - | - |
| 1787446982 | 17.78° C | 74% | 1012.6 hPa | 0 mm | - | - | - |
| 1787446082 | 17.78° C | 74% | 1013.1 hPa | 0 mm | - | - | - |
| 1787445181 | 17.78° C | 74% | 1013.1 hPa | 0 mm | - | - | - |
| 1787444279 | 17.78° C | 74% | 1013.3 hPa | 0 mm | - | - | - |
| 1787443376 | 17.78° C | 74% | 1013.7 hPa | 0 mm | - | - | - |
| 1787442534 | 18.33° C | 74% | 1014.1 hPa | 0 mm | - | - | - |
| 1787441572 | 18.33° C | 73% | 1014.3 hPa | 0 mm | - | - | - |
| 1787440671 | 18.33° C | 72% | 1014.7 hPa | 0 mm | - | - | - |
| 1787439772 | 18.89° C | 71% | 1014.6 hPa | 0 mm | - | - | - |
| 1787438869 | 18.89° C | 71% | 1014.2 hPa | 0 mm | - | - | - |
| 1787437966 | 18.89° C | 70% | 1014.2 hPa | 0 mm | - | - | - |
| 1787437064 | 18.89° C | 70% | 1014.1 hPa | 0 mm | - | - | - |
| 1787436222 | 18.89° C | 71% | 1014.3 hPa | 0 mm | - | - | - |
| 1787435260 | 18.89° C | 71% | 1014 hPa | 0 mm | - | - | - |
| 1787434360 | 18.89° C | 70% | 1014 hPa | 0 mm | - | - | - |
| 1787433520 | 19.44° C | 69% | 1014.2 hPa | 0 mm | - | - | - |
| 1787432560 | 19.44° C | 69% | 1014.2 hPa | 0 mm | - | - | - |
* Rain latest hour (hover to see other rain measurements)
** Current wind speed in m/s (hover to see current wind gust speed)